owner,sensor,date,latitude,longitude,vertical_datum,wind_speed,wind_to_direction,wind_speed_of_gust,qcFlag 
LUMCON,ioos:station:LUMCON:102:1,2016-01-01T05:00:00Z,29.1870,-90.6093,0.0,10.6,83.0,-9999.0,'1111122,1111122,1111122' 
LUMCON,ioos:station:LUMCON:102:1,2016-01-01T05:15:00Z,29.1870,-90.6093,0.0,12.2,89.0,-9999.0,'1111122,1111122,1111122' 
LUMCON,ioos:station:LUMCON:102:1,2016-01-01T05:30:00Z,29.1870,-90.6093,0.0,11.8,76.0,-9999.0,'1111122,1111122,1111122' 
LUMCON,ioos:station:LUMCON:102:1,2016-01-01T05:45:00Z,29.1870,-90.6093,0.0,12.6,79.0,-9999.0,'1111122,1111122,1111122' 
LUMCON,ioos:station:LUMCON:102:1,2016-01-01T06:00:00Z,29.1870,-90.6093,0.0,9.0,88.0,-9999.0,'1111122,1111122,1111122' 
LUMCON,ioos:station:LUMCON:102:1,2016-01-01T06:15:00Z,29.1870,-90.6093,0.0,8.6,94.0,-9999.0,'1111122,1111122,1111122' 
LUMCON,ioos:station:LUMCON:102:1,2016-01-01T06:30:00Z,29.1870,-90.6093,0.0,9.2,81.0,-9999.0,'1111122,1111122,1111122' 
LUMCON,ioos:station:LUMCON:102:1,2016-01-01T06:45:00Z,29.1870,-90.6093,0.0,8.7,80.0,-9999.0,'1111122,1111122,1111122' 
LUMCON,ioos:station:LUMCON:102:1,2016-01-01T07:00:00Z,29.1870,-90.6093,0.0,8.1,88.0,-9999.0,'1111122,1111122,1111122' 
LUMCON,ioos:station:LUMCON:102:1,2016-01-01T07:15:00Z,29.1870,-90.6093,0.0,7.0,79.0,-9999.0,'1111122,1111122,1111122' 
LUMCON,ioos:station:LUMCON:102:1,2016-01-01T07:30:00Z,29.1870,-90.6093,0.0,10.5,58.0,-9999.0,'1111122,1111122,1111122' 
LUMCON,ioos:station:LUMCON:102:1,2016-01-01T07:45:00Z,29.1870,-90.6093,0.0,9.9,10.0,-9999.0,'1111122,1111122,1111122' 
LUMCON,ioos:station:LUMCON:102:1,2016-01-01T08:00:00Z,29.1870,-90.6093,0.0,10.4,57.0,-9999.0,'1111122,1111122,1111122' 
LUMCON,ioos:station:LUMCON:102:1,2016-01-01T08:15:00Z,29.1870,-90.6093,0.0,10.3,63.0,-9999.0,'1111122,1111122,1111122' 
LUMCON,ioos:station:LUMCON:102:1,2016-01-01T08:30:00Z,29.1870,-90.6093,0.0,10.1,61.0,-9999.0,'1111122,1111122,1111122' 
LUMCON,ioos:station:LUMCON:102:1,2016-01-01T08:45:00Z,29.1870,-90.6093,0.0,12.6,57.0,-9999.0,'1111122,1111122,1111122' 
LUMCON,ioos:station:LUMCON:102:1,2016-01-01T09:00:00Z,29.1870,-90.6093,0.0,10.1,48.0,-9999.0,'1111122,1111122,1111122' 
LUMCON,ioos:station:LUMCON:102:1,2016-01-01T09:15:00Z,29.1870,-90.6093,0.0,10.7,45.0,-9999.0,'1111122,1111122,1111122' 
LUMCON,ioos:station:LUMCON:102:1,2016-01-01T09:30:00Z,29.1870,-90.6093,0.0,14.2,36.0,-9999.0,'1111122,1111122,1111122' 
LUMCON,ioos:station:LUMCON:102:1,2016-01-01T09:45:00Z,29.1870,-90.6093,0.0,13.0,44.0,-9999.0,'1111122,1111122,1111122' 
LUMCON,ioos:station:LUMCON:102:1,2016-01-01T10:00:00Z,29.1870,-90.6093,0.0,12.1,43.0,-9999.0,'1111122,1111122,1111122' 
LUMCON,ioos:station:LUMCON:102:1,2016-01-01T10:15:00Z,29.1870,-90.6093,0.0,11.8,72.0,-9999.0,'1111122,1111122,1111122' 
LUMCON,ioos:station:LUMCON:102:1,2016-01-01T10:45:00Z,29.1870,-90.6093,0.0,12.1,68.0,-9999.0,'1111122,1111122,1111122' 
LUMCON,ioos:station:LUMCON:102:1,2016-01-01T11:00:00Z,29.1870,-90.6093,0.0,13.3,68.0,-9999.0,'1111122,1111122,1111122' 
LUMCON,ioos:station:LUMCON:102:1,2016-01-01T11:15:00Z,29.1870,-90.6093,0.0,10.7,71.0,-9999.0,'1111122,1111122,1111122' 
LUMCON,ioos:station:LUMCON:102:1,2016-01-01T11:30:00Z,29.1870,-90.6093,0.0,10.3,71.0,-9999.0,'1111122,1111122,1111122' 
LUMCON,ioos:station:LUMCON:102:1,2016-01-01T11:45:00Z,29.1870,-90.6093,0.0,12.4,84.0,-9999.0,'1111122,1111122,1111122' 
LUMCON,ioos:station:LUMCON:102:1,2016-01-01T12:00:00Z,29.1870,-90.6093,0.0,11.1,89.0,-9999.0,'1111122,1111122,1111122' 
LUMCON,ioos:station:LUMCON:102:1,2016-01-01T12:15:00Z,29.1870,-90.6093,0.0,10.2,83.0,-9999.0,'1111122,1111122,1111122' 
LUMCON,ioos:station:LUMCON:102:1,2016-01-01T12:30:00Z,29.1870,-90.6093,0.0,9.7,90.0,-9999.0,'1111122,1111122,1111122' 
LUMCON,ioos:station:LUMCON:102:1,2016-01-01T12:45:00Z,29.1870,-90.6093,0.0,10.9,83.0,-9999.0,'1111122,1111122,1111122' 
LUMCON,ioos:station:LUMCON:102:1,2016-01-01T13:00:00Z,29.1870,-90.6093,0.0,9.9,76.0,-9999.0,'1111122,1111122,1111122' 
LUMCON,ioos:station:LUMCON:102:1,2016-01-01T13:15:00Z,29.1870,-90.6093,0.0,10.0,69.0,-9999.0,'1111122,1111122,1111122' 
LUMCON,ioos:station:LUMCON:102:1,2016-01-01T13:30:00Z,29.1870,-90.6093,0.0,12.0,76.0,-9999.0,'1111122,1111122,1111122' 
LUMCON,ioos:station:LUMCON:102:1,2016-01-01T13:45:00Z,29.1870,-90.6093,0.0,12.2,75.0,-9999.0,'1111122,1111122,1111122' 
LUMCON,ioos:station:LUMCON:102:1,2016-01-01T14:00:00Z,29.1870,-90.6093,0.0,9.2,77.0,-9999.0,'1111122,1111122,1111122' 
LUMCON,ioos:station:LUMCON:102:1,2016-01-01T14:15:00Z,29.1870,-90.6093,0.0,10.0,61.0,-9999.0,'1111122,1111122,1111122' 
LUMCON,ioos:station:LUMCON:102:1,2016-01-01T14:30:00Z,29.1870,-90.6093,0.0,11.4,78.0,-9999.0,'1111122,1111122,1111122' 
LUMCON,ioos:station:LUMCON:102:1,2016-01-01T14:45:00Z,29.1870,-90.6093,0.0,10.8,60.0,-9999.0,'1111122,1111122,1111122' 
LUMCON,ioos:station:LUMCON:102:1,2016-01-01T15:00:00Z,29.1870,-90.6093,0.0,11.2,65.0,-9999.0,'1111122,1111122,1111122' 
LUMCON,ioos:station:LUMCON:102:1,2016-01-01T15:15:00Z,29.1870,-90.6093,0.0,8.8,68.0,-9999.0,'1111122,1111122,1111122' 
LUMCON,ioos:station:LUMCON:102:1,2016-01-01T15:30:00Z,29.1870,-90.6093,0.0,9.2,59.0,-9999.0,'1111122,1111122,1111122' 
LUMCON,ioos:station:LUMCON:102:1,2016-01-01T15:45:00Z,29.1870,-90.6093,0.0,11.6,53.0,-9999.0,'1111122,1111122,1111122' 
LUMCON,ioos:station:LUMCON:102:1,2016-01-01T16:00:00Z,29.1870,-90.6093,0.0,9.1,64.0,-9999.0,'1111122,1111122,1111122' 
LUMCON,ioos:station:LUMCON:102:1,2016-01-01T16:15:00Z,29.1870,-90.6093,0.0,7.5,57.0,-9999.0,'1111122,1111122,1111122' 
LUMCON,ioos:station:LUMCON:102:1,2016-01-01T16:30:00Z,29.1870,-90.6093,0.0,9.3,63.0,-9999.0,'1111122,1111122,1111122' 
LUMCON,ioos:station:LUMCON:102:1,2016-01-01T16:45:00Z,29.1870,-90.6093,0.0,10.2,59.0,-9999.0,'1111122,1111122,1111122' 
LUMCON,ioos:station:LUMCON:102:1,2016-01-01T17:00:00Z,29.1870,-90.6093,0.0,10.6,70.0,-9999.0,'1111122,1111122,1111122' 
LUMCON,ioos:station:LUMCON:102:1,2016-01-01T17:15:00Z,29.1870,-90.6093,0.0,10.6,52.0,-9999.0,'1111122,1111122,1111122' 
LUMCON,ioos:station:LUMCON:102:1,2016-01-01T17:30:00Z,29.1870,-90.6093,0.0,11.3,84.0,-9999.0,'1111122,1111122,1111122' 
LUMCON,ioos:station:LUMCON:102:1,2016-01-01T17:45:00Z,29.1870,-90.6093,0.0,11.0,68.0,-9999.0,'1111122,1111122,1111122' 
LUMCON,ioos:station:LUMCON:102:1,2016-01-01T18:00:00Z,29.1870,-90.6093,0.0,9.2,69.0,-9999.0,'1111122,1111122,1111122' 
LUMCON,ioos:station:LUMCON:102:1,2016-01-01T18:15:00Z,29.1870,-90.6093,0.0,11.4,65.0,-9999.0,'1111122,1111122,1111122' 
LUMCON,ioos:station:LUMCON:102:1,2016-01-01T18:30:00Z,29.1870,-90.6093,0.0,10.7,58.0,-9999.0,'1111122,1111122,1111122' 
LUMCON,ioos:station:LUMCON:102:1,2016-01-01T18:45:00Z,29.1870,-90.6093,0.0,10.0,65.0,-9999.0,'1111122,1111122,1111122' 
LUMCON,ioos:station:LUMCON:102:1,2016-01-01T19:00:00Z,29.1870,-90.6093,0.0,10.5,63.0,-9999.0,'1111122,1111122,1111122' 
LUMCON,ioos:station:LUMCON:102:1,2016-01-01T19:15:00Z,29.1870,-90.6093,0.0,9.6,66.0,-9999.0,'1111122,1111122,1111122' 
LUMCON,ioos:station:LUMCON:102:1,2016-01-01T19:30:00Z,29.1870,-90.6093,0.0,10.7,78.0,-9999.0,'1111122,1111122,1111122' 
LUMCON,ioos:station:LUMCON:102:1,2016-01-01T19:45:00Z,29.1870,-90.6093,0.0,9.6,75.0,-9999.0,'1111122,1111122,1111122' 
LUMCON,ioos:station:LUMCON:102:1,2016-01-01T20:00:00Z,29.1870,-90.6093,0.0,9.9,49.0,-9999.0,'1111122,1111122,1111122' 
LUMCON,ioos:station:LUMCON:102:1,2016-01-01T20:15:00Z,29.1870,-90.6093,0.0,9.8,69.0,-9999.0,'1111122,1111122,1111122' 
LUMCON,ioos:station:LUMCON:102:1,2016-01-01T20:30:00Z,29.1870,-90.6093,0.0,10.1,63.0,-9999.0,'1111122,1111122,1111122' 
LUMCON,ioos:station:LUMCON:102:1,2016-01-01T20:45:00Z,29.1870,-90.6093,0.0,10.7,59.0,-9999.0,'1111122,1111122,1111122' 
LUMCON,ioos:station:LUMCON:102:1,2016-01-01T21:00:00Z,29.1870,-90.6093,0.0,10.6,50.0,-9999.0,'1111122,1111122,1111122' 
LUMCON,ioos:station:LUMCON:102:1,2016-01-01T21:15:00Z,29.1870,-90.6093,0.0,9.3,59.0,-9999.0,'1111122,1111122,1111122' 
LUMCON,ioos:station:LUMCON:102:1,2016-01-01T21:30:00Z,29.1870,-90.6093,0.0,10.1,47.0,-9999.0,'1111122,1111122,1111122' 
LUMCON,ioos:station:LUMCON:102:1,2016-01-01T21:45:00Z,29.1870,-90.6093,0.0,10.9,52.0,-9999.0,'1111122,1111122,1111122' 
LUMCON,ioos:station:LUMCON:102:1,2016-01-01T22:00:00Z,29.1870,-90.6093,0.0,9.8,46.0,-9999.0,'1111122,1111122,1111122' 
LUMCON,ioos:station:LUMCON:102:1,2016-01-01T22:15:00Z,29.1870,-90.6093,0.0,11.4,49.0,-9999.0,'1111122,1111122,1111122' 
LUMCON,ioos:station:LUMCON:102:1,2016-01-01T22:30:00Z,29.1870,-90.6093,0.0,10.4,57.0,-9999.0,'1111122,1111122,1111122' 
LUMCON,ioos:station:LUMCON:102:1,2016-01-01T22:45:00Z,29.1870,-90.6093,0.0,11.7,52.0,-9999.0,'1111122,1111122,1111122' 
LUMCON,ioos:station:LUMCON:102:1,2016-01-01T23:00:00Z,29.1870,-90.6093,0.0,11.4,60.0,-9999.0,'1111122,1111122,1111122' 
LUMCON,ioos:station:LUMCON:102:1,2016-01-01T23:15:00Z,29.1870,-90.6093,0.0,11.2,63.0,-9999.0,'1111122,1111122,1111122' 
LUMCON,ioos:station:LUMCON:102:1,2016-01-01T23:30:00Z,29.1870,-90.6093,0.0,8.7,65.0,-9999.0,'1111122,1111122,1111122' 
LUMCON,ioos:station:LUMCON:102:1,2016-01-01T23:45:00Z,29.1870,-90.6093,0.0,10.2,61.0,-9999.0,'1111122,1111122,1111122' 
LUMCON,ioos:station:LUMCON:102:1,2016-01-02T05:00:00Z,29.1870,-90.6093,0.0,9.8,86.0,-9999.0,'1111122,1111122,1111122' 
LUMCON,ioos:station:LUMCON:102:1,2016-01-02T05:15:00Z,29.1870,-90.6093,0.0,10.5,70.0,-9999.0,'1111122,1111122,1111122' 
LUMCON,ioos:station:LUMCON:102:1,2016-01-02T05:30:00Z,29.1870,-90.6093,0.0,10.1,80.0,-9999.0,'1111122,1111122,1111122' 
LUMCON,ioos:station:LUMCON:102:1,2016-01-02T05:45:00Z,29.1870,-90.6093,0.0,11.4,63.0,-9999.0,'1111122,1111122,1111122' 
LUMCON,ioos:station:LUMCON:102:1,2016-01-02T06:00:00Z,29.1870,-90.6093,0.0,9.3,63.0,-9999.0,'1111122,1111122,1111122' 
LUMCON,ioos:station:LUMCON:102:1,2016-01-02T06:15:00Z,29.1870,-90.6093,0.0,10.3,65.0,-9999.0,'1111122,1111122,1111122' 
LUMCON,ioos:station:LUMCON:102:1,2016-01-02T06:30:00Z,29.1870,-90.6093,0.0,10.5,59.0,-9999.0,'1111122,1111122,1111122' 
LUMCON,ioos:station:LUMCON:102:1,2016-01-02T06:45:00Z,29.1870,-90.6093,0.0,9.4,69.0,-9999.0,'1111122,1111122,1111122' 
LUMCON,ioos:station:LUMCON:102:1,2016-01-02T07:00:00Z,29.1870,-90.6093,0.0,7.3,73.0,-9999.0,'1111122,1111122,1111122' 
LUMCON,ioos:station:LUMCON:102:1,2016-01-02T07:15:00Z,29.1870,-90.6093,0.0,7.0,86.0,-9999.0,'1111122,1111122,1111122' 
LUMCON,ioos:station:LUMCON:102:1,2016-01-02T07:30:00Z,29.1870,-90.6093,0.0,7.7,77.0,-9999.0,'1111122,1111122,1111122' 
LUMCON,ioos:station:LUMCON:102:1,2016-01-02T07:45:00Z,29.1870,-90.6093,0.0,9.7,78.0,-9999.0,'1111122,1111122,1111122' 
LUMCON,ioos:station:LUMCON:102:1,2016-01-02T08:00:00Z,29.1870,-90.6093,0.0,8.5,70.0,-9999.0,'1111122,1111122,1111122' 
LUMCON,ioos:station:LUMCON:102:1,2016-01-02T08:15:00Z,29.1870,-90.6093,0.0,8.2,69.0,-9999.0,'1111122,1111122,1111122' 
LUMCON,ioos:station:LUMCON:102:1,2016-01-02T08:30:00Z,29.1870,-90.6093,0.0,8.8,79.0,-9999.0,'1111122,1111122,1111122' 
LUMCON,ioos:station:LUMCON:102:1,2016-01-02T08:45:00Z,29.1870,-90.6093,0.0,10.8,79.0,-9999.0,'1111122,1111122,1111122' 
LUMCON,ioos:station:LUMCON:102:1,2016-01-02T09:00:00Z,29.1870,-90.6093,0.0,9.6,84.0,-9999.0,'1111122,1111122,1111122' 
LUMCON,ioos:station:LUMCON:102:1,2016-01-02T09:15:00Z,29.1870,-90.6093,0.0,10.5,86.0,-9999.0,'1111122,1111122,1111122' 
LUMCON,ioos:station:LUMCON:102:1,2016-01-02T09:30:00Z,29.1870,-90.6093,0.0,9.2,90.0,-9999.0,'1111122,1111122,1111122' 
LUMCON,ioos:station:LUMCON:102:1,2016-01-02T09:45:00Z,29.1870,-90.6093,0.0,9.6,88.0,-9999.0,'1111122,1111122,1111122' 
LUMCON,ioos:station:LUMCON:102:1,2016-01-02T10:00:00Z,29.1870,-90.6093,0.0,9.7,97.0,-9999.0,'1111122,1111122,1111122' 
LUMCON,ioos:station:LUMCON:102:1,2016-01-02T10:15:00Z,29.1870,-90.6093,0.0,10.6,77.0,-9999.0,'1111122,1111122,1111122' 
LUMCON,ioos:station:LUMCON:102:1,2016-01-02T10:30:00Z,29.1870,-90.6093,0.0,9.2,85.0,-9999.0,'1111122,1111122,1111122' 
LUMCON,ioos:station:LUMCON:102:1,2016-01-02T10:45:00Z,29.1870,-90.6093,0.0,9.6,82.0,-9999.0,'1111122,1111122,1111122' 
LUMCON,ioos:station:LUMCON:102:1,2016-01-02T11:00:00Z,29.1870,-90.6093,0.0,11.2,90.0,-9999.0,'1111122,1111122,1111122' 
LUMCON,ioos:station:LUMCON:102:1,2016-01-02T11:15:00Z,29.1870,-90.6093,0.0,9.2,74.0,-9999.0,'1111122,1111122,1111122' 
LUMCON,ioos:station:LUMCON:102:1,2016-01-02T11:30:00Z,29.1870,-90.6093,0.0,7.1,82.0,-9999.0,'1111122,1111122,1111122' 
LUMCON,ioos:station:LUMCON:102:1,2016-01-02T11:45:00Z,29.1870,-90.6093,0.0,9.7,83.0,-9999.0,'1111122,1111122,1111122' 
LUMCON,ioos:station:LUMCON:102:1,2016-01-02T12:00:00Z,29.1870,-90.6093,0.0,8.2,84.0,-9999.0,'1111122,1111122,1111122' 
LUMCON,ioos:station:LUMCON:102:1,2016-01-02T12:15:00Z,29.1870,-90.6093,0.0,7.9,83.0,-9999.0,'1111122,1111122,1111122' 
LUMCON,ioos:station:LUMCON:102:1,2016-01-02T12:30:00Z,29.1870,-90.6093,0.0,7.5,71.0,-9999.0,'1111122,1111122,1111122' 
LUMCON,ioos:station:LUMCON:102:1,2016-01-02T12:45:00Z,29.1870,-90.6093,0.0,8.9,69.0,-9999.0,'1111122,1111122,1111122' 
LUMCON,ioos:station:LUMCON:102:1,2016-01-02T13:00:00Z,29.1870,-90.6093,0.0,9.3,83.0,-9999.0,'1111122,1111122,1111122' 
LUMCON,ioos:station:LUMCON:102:1,2016-01-02T13:15:00Z,29.1870,-90.6093,0.0,9.3,73.0,-9999.0,'1111122,1111122,1111122' 
LUMCON,ioos:station:LUMCON:102:1,2016-01-02T13:30:00Z,29.1870,-90.6093,0.0,8.6,85.0,-9999.0,'1111122,1111122,1111122' 
LUMCON,ioos:station:LUMCON:102:1,2016-01-02T13:45:00Z,29.1870,-90.6093,0.0,8.8,83.0,-9999.0,'1111122,1111122,1111122' 
LUMCON,ioos:station:LUMCON:102:1,2016-01-02T14:00:00Z,29.1870,-90.6093,0.0,7.2,90.0,-9999.0,'1111122,1111122,1111122' 
LUMCON,ioos:station:LUMCON:102:1,2016-01-02T14:15:00Z,29.1870,-90.6093,0.0,9.5,87.0,-9999.0,'1111122,1111122,1111122' 
LUMCON,ioos:station:LUMCON:102:1,2016-01-02T14:30:00Z,29.1870,-90.6093,0.0,10.2,94.0,-9999.0,'1111122,1111122,1111122' 
LUMCON,ioos:station:LUMCON:102:1,2016-01-02T14:45:00Z,29.1870,-90.6093,0.0,9.5,77.0,-9999.0,'1111122,1111122,1111122' 
LUMCON,ioos:station:LUMCON:102:1,2016-01-02T15:00:00Z,29.1870,-90.6093,0.0,10.6,76.0,-9999.0,'1111122,1111122,1111122' 
LUMCON,ioos:station:LUMCON:102:1,2016-01-02T15:15:00Z,29.1870,-90.6093,0.0,10.7,89.0,-9999.0,'1111122,1111122,1111122' 
LUMCON,ioos:station:LUMCON:102:1,2016-01-02T15:30:00Z,29.1870,-90.6093,0.0,9.0,77.0,-9999.0,'1111122,1111122,1111122' 
LUMCON,ioos:station:LUMCON:102:1,2016-01-02T15:45:00Z,29.1870,-90.6093,0.0,9.6,74.0,-9999.0,'1111122,1111122,1111122' 
LUMCON,ioos:station:LUMCON:102:1,2016-01-02T16:00:00Z,29.1870,-90.6093,0.0,8.2,84.0,-9999.0,'1111122,1111122,1111122' 
LUMCON,ioos:station:LUMCON:102:1,2016-01-02T16:15:00Z,29.1870,-90.6093,0.0,8.3,85.0,-9999.0,'1111122,1111122,1111122' 
LUMCON,ioos:station:LUMCON:102:1,2016-01-02T16:30:00Z,29.1870,-90.6093,0.0,9.8,85.0,-9999.0,'1111122,1111122,1111122' 
LUMCON,ioos:station:LUMCON:102:1,2016-01-02T16:45:00Z,29.1870,-90.6093,0.0,9.8,91.0,-9999.0,'1111122,1111122,1111122' 
LUMCON,ioos:station:LUMCON:102:1,2016-01-02T17:00:00Z,29.1870,-90.6093,0.0,9.6,85.0,-9999.0,'1111122,1111122,1111122' 
LUMCON,ioos:station:LUMCON:102:1,2016-01-02T17:15:00Z,29.1870,-90.6093,0.0,9.2,82.0,-9999.0,'1111122,1111122,1111122' 
LUMCON,ioos:station:LUMCON:102:1,2016-01-02T17:30:00Z,29.1870,-90.6093,0.0,8.8,87.0,-9999.0,'1111122,1111122,1111122' 
LUMCON,ioos:station:LUMCON:102:1,2016-01-02T17:45:00Z,29.1870,-90.6093,0.0,8.5,77.0,-9999.0,'1111122,1111122,1111122' 
LUMCON,ioos:station:LUMCON:102:1,2016-01-02T18:00:00Z,29.1870,-90.6093,0.0,8.1,79.0,-9999.0,'1111122,1111122,1111122' 
LUMCON,ioos:station:LUMCON:102:1,2016-01-02T18:15:00Z,29.1870,-90.6093,0.0,9.3,81.0,-9999.0,'1111122,1111122,1111122' 
LUMCON,ioos:station:LUMCON:102:1,2016-01-02T18:30:00Z,29.1870,-90.6093,0.0,9.2,83.0,-9999.0,'1111122,1111122,1111122' 
LUMCON,ioos:station:LUMCON:102:1,2016-01-02T18:45:00Z,29.1870,-90.6093,0.0,8.5,82.0,-9999.0,'1111122,1111122,1111122' 
LUMCON,ioos:station:LUMCON:102:1,2016-01-02T19:00:00Z,29.1870,-90.6093,0.0,8.0,82.0,-9999.0,'1111122,1111122,1111122' 
LUMCON,ioos:station:LUMCON:102:1,2016-01-02T19:15:00Z,29.1870,-90.6093,0.0,9.0,85.0,-9999.0,'1111122,1111122,1111122' 
LUMCON,ioos:station:LUMCON:102:1,2016-01-02T19:30:00Z,29.1870,-90.6093,0.0,8.4,75.0,-9999.0,'1111122,1111122,1111122' 
LUMCON,ioos:station:LUMCON:102:1,2016-01-02T19:45:00Z,29.1870,-90.6093,0.0,8.2,63.0,-9999.0,'1111122,1111122,1111122' 
LUMCON,ioos:station:LUMCON:102:1,2016-01-02T20:00:00Z,29.1870,-90.6093,0.0,9.5,62.0,-9999.0,'1111122,1111122,1111122' 
LUMCON,ioos:station:LUMCON:102:1,2016-01-02T20:15:00Z,29.1870,-90.6093,0.0,7.9,65.0,-9999.0,'1111122,1111122,1111122' 
LUMCON,ioos:station:LUMCON:102:1,2016-01-02T20:30:00Z,29.1870,-90.6093,0.0,7.9,51.0,-9999.0,'1111122,1111122,1111122' 
LUMCON,ioos:station:LUMCON:102:1,2016-01-02T20:45:00Z,29.1870,-90.6093,0.0,6.3,49.0,-9999.0,'1111122,1111122,1111122' 
LUMCON,ioos:station:LUMCON:102:1,2016-01-02T21:00:00Z,29.1870,-90.6093,0.0,6.6,51.0,-9999.0,'1111122,1111122,1111122' 
LUMCON,ioos:station:LUMCON:102:1,2016-01-02T21:15:00Z,29.1870,-90.6093,0.0,7.9,42.0,-9999.0,'1111122,1111122,1111122' 
LUMCON,ioos:station:LUMCON:102:1,2016-01-02T21:30:00Z,29.1870,-90.6093,0.0,7.4,45.0,-9999.0,'1111122,1111122,1111122' 
LUMCON,ioos:station:LUMCON:102:1,2016-01-02T21:45:00Z,29.1870,-90.6093,0.0,5.9,40.0,-9999.0,'1111122,1111122,1111122' 
LUMCON,ioos:station:LUMCON:102:1,2016-01-02T22:00:00Z,29.1870,-90.6093,0.0,5.9,25.0,-9999.0,'1111122,1111122,1111122' 
LUMCON,ioos:station:LUMCON:102:1,2016-01-02T22:15:00Z,29.1870,-90.6093,0.0,6.4,39.0,-9999.0,'1111122,1111122,1111122' 
LUMCON,ioos:station:LUMCON:102:1,2016-01-02T22:30:00Z,29.1870,-90.6093,0.0,6.6,49.0,-9999.0,'1111122,1111122,1111122' 
LUMCON,ioos:station:LUMCON:102:1,2016-01-02T22:45:00Z,29.1870,-90.6093,0.0,7.6,48.0,-9999.0,'1111122,1111122,1111122' 
LUMCON,ioos:station:LUMCON:102:1,2016-01-02T23:00:00Z,29.1870,-90.6093,0.0,8.3,55.0,-9999.0,'1111122,1111122,1111122' 
LUMCON,ioos:station:LUMCON:102:1,2016-01-02T23:15:00Z,29.1870,-90.6093,0.0,7.9,63.0,-9999.0,'1111122,1111122,1111122' 
LUMCON,ioos:station:LUMCON:102:1,2016-01-02T23:30:00Z,29.1870,-90.6093,0.0,6.0,63.0,-9999.0,'1111122,1111122,1111122' 
LUMCON,ioos:station:LUMCON:102:1,2016-01-02T23:45:00Z,29.1870,-90.6093,0.0,5.9,61.0,-9999.0,'1111122,1111122,1111122' 
LUMCON,ioos:station:LUMCON:102:1,2016-01-03T05:00:00Z,29.1870,-90.6093,0.0,7.0,73.0,-9999.0,'1111122,1111122,1111122' 
LUMCON,ioos:station:LUMCON:102:1,2016-01-03T05:15:00Z,29.1870,-90.6093,0.0,6.1,82.0,-9999.0,'1111122,1111122,1111122' 
LUMCON,ioos:station:LUMCON:102:1,2016-01-03T05:30:00Z,29.1870,-90.6093,0.0,7.0,90.0,-9999.0,'1111122,1111122,1111122' 
LUMCON,ioos:station:LUMCON:102:1,2016-01-03T05:45:00Z,29.1870,-90.6093,0.0,6.4,90.0,-9999.0,'1111122,1111122,1111122' 
LUMCON,ioos:station:LUMCON:102:1,2016-01-03T06:00:00Z,29.1870,-90.6093,0.0,8.1,89.0,-9999.0,'1111122,1111122,1111122' 
LUMCON,ioos:station:LUMCON:102:1,2016-01-03T06:15:00Z,29.1870,-90.6093,0.0,7.5,85.0,-9999.0,'1111122,1111122,1111122' 
LUMCON,ioos:station:LUMCON:102:1,2016-01-03T06:30:00Z,29.1870,-90.6093,0.0,7.0,86.0,-9999.0,'1111122,1111122,1111122' 
LUMCON,ioos:station:LUMCON:102:1,2016-01-03T06:45:00Z,29.1870,-90.6093,0.0,7.3,75.0,-9999.0,'1111122,1111122,1111122' 
LUMCON,ioos:station:LUMCON:102:1,2016-01-03T07:00:00Z,29.1870,-90.6093,0.0,6.8,80.0,-9999.0,'1111122,1111122,1111122' 
LUMCON,ioos:station:LUMCON:102:1,2016-01-03T07:15:00Z,29.1870,-90.6093,0.0,5.7,72.0,-9999.0,'1111122,1111122,1111122' 
LUMCON,ioos:station:LUMCON:102:1,2016-01-03T07:30:00Z,29.1870,-90.6093,0.0,7.4,72.0,-9999.0,'1111122,1111122,1111122' 
LUMCON,ioos:station:LUMCON:102:1,2016-01-03T07:45:00Z,29.1870,-90.6093,0.0,7.8,72.0,-9999.0,'1111122,1111122,1111122' 
LUMCON,ioos:station:LUMCON:102:1,2016-01-03T08:00:00Z,29.1870,-90.6093,0.0,7.2,82.0,-9999.0,'1111122,1111122,1111122' 
LUMCON,ioos:station:LUMCON:102:1,2016-01-03T08:15:00Z,29.1870,-90.6093,0.0,6.9,80.0,-9999.0,'1111122,1111122,1111122' 
LUMCON,ioos:station:LUMCON:102:1,2016-01-03T08:30:00Z,29.1870,-90.6093,0.0,6.4,75.0,-9999.0,'1111122,1111122,1111122' 
LUMCON,ioos:station:LUMCON:102:1,2016-01-03T08:45:00Z,29.1870,-90.6093,0.0,6.2,74.0,-9999.0,'1111122,1111122,1111122' 
LUMCON,ioos:station:LUMCON:102:1,2016-01-03T09:00:00Z,29.1870,-90.6093,0.0,6.1,79.0,-9999.0,'1111122,1111122,1111122' 
LUMCON,ioos:station:LUMCON:102:1,2016-01-03T09:15:00Z,29.1870,-90.6093,0.0,7.3,82.0,-9999.0,'1111122,1111122,1111122' 
LUMCON,ioos:station:LUMCON:102:1,2016-01-03T09:30:00Z,29.1870,-90.6093,0.0,5.7,80.0,-9999.0,'1111122,1111122,1111122' 
LUMCON,ioos:station:LUMCON:102:1,2016-01-03T09:45:00Z,29.1870,-90.6093,0.0,6.6,75.0,-9999.0,'1111122,1111122,1111122' 
LUMCON,ioos:station:LUMCON:102:1,2016-01-03T10:00:00Z,29.1870,-90.6093,0.0,5.8,78.0,-9999.0,'1111122,1111122,1111122' 
LUMCON,ioos:station:LUMCON:102:1,2016-01-03T10:15:00Z,29.1870,-90.6093,0.0,6.7,81.0,-9999.0,'1111122,1111122,1111122' 
LUMCON,ioos:station:LUMCON:102:1,2016-01-03T10:30:00Z,29.1870,-90.6093,0.0,6.5,72.0,-9999.0,'1111122,1111122,1111122' 
LUMCON,ioos:station:LUMCON:102:1,2016-01-03T10:45:00Z,29.1870,-90.6093,0.0,6.4,66.0,-9999.0,'1111122,1111122,1111122' 
LUMCON,ioos:station:LUMCON:102:1,2016-01-03T11:00:00Z,29.1870,-90.6093,0.0,6.0,47.0,-9999.0,'1111122,1111122,1111122' 
LUMCON,ioos:station:LUMCON:102:1,2016-01-03T11:15:00Z,29.1870,-90.6093,0.0,6.3,54.0,-9999.0,'1111122,1111122,1111122' 
LUMCON,ioos:station:LUMCON:102:1,2016-01-03T11:30:00Z,29.1870,-90.6093,0.0,5.6,38.0,-9999.0,'1111122,1111122,1111122' 
LUMCON,ioos:station:LUMCON:102:1,2016-01-03T11:45:00Z,29.1870,-90.6093,0.0,6.2,49.0,-9999.0,'1111122,1111122,1111122' 
LUMCON,ioos:station:LUMCON:102:1,2016-01-03T12:00:00Z,29.1870,-90.6093,0.0,5.0,49.0,-9999.0,'1111122,1111122,1111122' 
LUMCON,ioos:station:LUMCON:102:1,2016-01-03T12:15:00Z,29.1870,-90.6093,0.0,5.4,57.0,-9999.0,'1111122,1111122,1111122' 
LUMCON,ioos:station:LUMCON:102:1,2016-01-03T12:30:00Z,29.1870,-90.6093,0.0,6.9,72.0,-9999.0,'1111122,1111122,1111122' 
LUMCON,ioos:station:LUMCON:102:1,2016-01-03T12:45:00Z,29.1870,-90.6093,0.0,5.4,52.0,-9999.0,'1111122,1111122,1111122' 
LUMCON,ioos:station:LUMCON:102:1,2016-01-03T13:00:00Z,29.1870,-90.6093,0.0,6.5,52.0,-9999.0,'1111122,1111122,1111122' 
LUMCON,ioos:station:LUMCON:102:1,2016-01-03T13:15:00Z,29.1870,-90.6093,0.0,5.6,37.0,-9999.0,'1111122,1111122,1111122' 
LUMCON,ioos:station:LUMCON:102:1,2016-01-03T13:30:00Z,29.1870,-90.6093,0.0,5.0,42.0,-9999.0,'1111122,1111122,1111122' 
LUMCON,ioos:station:LUMCON:102:1,2016-01-03T13:45:00Z,29.1870,-90.6093,0.0,5.1,48.0,-9999.0,'1111122,1111122,1111122' 
LUMCON,ioos:station:LUMCON:102:1,2016-01-03T14:00:00Z,29.1870,-90.6093,0.0,5.5,45.0,-9999.0,'1111122,1111122,1111122' 
LUMCON,ioos:station:LUMCON:102:1,2016-01-03T14:15:00Z,29.1870,-90.6093,0.0,7.2,44.0,-9999.0,'1111122,1111122,1111122' 
LUMCON,ioos:station:LUMCON:102:1,2016-01-03T14:30:00Z,29.1870,-90.6093,0.0,6.6,38.0,-9999.0,'1111122,1111122,1111122' 
LUMCON,ioos:station:LUMCON:102:1,2016-01-03T14:45:00Z,29.1870,-90.6093,0.0,6.9,36.0,-9999.0,'1111122,1111122,1111122' 
LUMCON,ioos:station:LUMCON:102:1,2016-01-03T15:00:00Z,29.1870,-90.6093,0.0,6.3,57.0,-9999.0,'1111122,1111122,1111122' 
LUMCON,ioos:station:LUMCON:102:1,2016-01-03T15:15:00Z,29.1870,-90.6093,0.0,5.8,54.0,-9999.0,'1111122,1111122,1111122' 
LUMCON,ioos:station:LUMCON:102:1,2016-01-03T15:30:00Z,29.1870,-90.6093,0.0,5.4,46.0,-9999.0,'1111122,1111122,1111122' 
LUMCON,ioos:station:LUMCON:102:1,2016-01-03T15:45:00Z,29.1870,-90.6093,0.0,5.9,46.0,-9999.0,'1111122,1111122,1111122' 
LUMCON,ioos:station:LUMCON:102:1,2016-01-03T16:00:00Z,29.1870,-90.6093,0.0,4.3,64.0,-9999.0,'1111122,1111122,1111122' 
LUMCON,ioos:station:LUMCON:102:1,2016-01-03T16:15:00Z,29.1870,-90.6093,0.0,4.6,65.0,-9999.0,'1111122,1111122,1111122' 
LUMCON,ioos:station:LUMCON:102:1,2016-01-03T16:30:00Z,29.1870,-90.6093,0.0,5.1,56.0,-9999.0,'1111122,1111122,1111122' 
LUMCON,ioos:station:LUMCON:102:1,2016-01-03T16:45:00Z,29.1870,-90.6093,0.0,5.1,44.0,-9999.0,'1111122,1111122,1111122' 
LUMCON,ioos:station:LUMCON:102:1,2016-01-03T17:00:00Z,29.1870,-90.6093,0.0,4.9,59.0,-9999.0,'1111122,1111122,1111122' 